Location: Jonesport
(44.5330°N, 67.5990°W)
Time: 01:30:12
(UTC-04:00)

Iridium 35 - Visible Passes

Search period start: 16 April 2014 00:00
Search period end: 26 April 2014 00:00
Orbit: 776 x 779 km, 86.4° (Epoch: 15 April)

Date Brightness Start Highest point End Pass type
(mag) Time Alt. Az. Time Alt. Az. Time Alt. Az.
16 Apr 7.6 02:43:27 10° NNE 02:46:52 17° ENE 02:50:15 10° ESE visible
16 Apr 5.0 04:22:54 10° N 04:28:03 62° W 04:33:10 10° SSW visible
17 Apr 5.2 03:49:19 10° N 03:54:33 75° E 03:59:44 10° S visible
18 Apr 6.2 03:15:59 10° N 03:20:55 42° E 03:25:50 10° SSE visible
18 Apr 6.1 04:57:14 10° NNW 05:01:23 25° W 05:05:31 10° SW visible
19 Apr 7.1 02:42:58 10° NNE 02:47:10 24° ENE 02:51:20 10° SE visible
19 Apr 5.4 04:23:10 10° NNW 04:28:04 43° W 04:32:57 10° SSW visible
20 Apr 7.7 02:10:37 10° NE 02:13:16 14° ENE 02:15:54 10° E visible
20 Apr 4.9 03:49:25 10° N 03:54:39 78° W 03:59:19 13° S visible
21 Apr 5.5 03:15:56 10° N 03:21:06 60° E 03:25:23 15° SSE visible
21 Apr 6.5 04:57:55 10° NW 05:01:17 18° WNW 05:04:39 10° WSW visible
22 Apr 6.5 02:42:42 10° NNE 02:47:25 33° E 02:51:31 13° SE visible
22 Apr 5.9 04:23:32 10° NNW 04:28:03 31° W 04:31:57 13° SW visible
23 Apr 7.3 02:09:52 10° NNE 02:13:36 20° ENE 02:17:19 10° ESE visible
23 Apr 5.2 03:49:37 10° NNW 03:54:42 54° W 03:58:08 20° SSW visible
24 Apr 7.8 01:38:20 10° NE 01:39:39 11° ENE 01:40:57 10° E visible
24 Apr 5.0 03:15:58 10° N 03:21:13 84° E 03:24:20 25° S visible
24 Apr 6.9 04:59:06 10° NW 05:01:08 12° WNW 05:03:10 10° W visible
25 Apr 5.9 02:42:34 10° N 02:47:37 47° E 02:50:35 23° SE visible
25 Apr 6.3 04:24:03 10° NNW 04:27:58 22° W 04:31:01 14° WSW visible
